Location: Kelowna
(49.8880°N, 119.4960°W)
Time: 16:02:14
(UTC-07:00)

NOAA 18 - Visible Passes

Search period start: 18 April 2024 00:00
Search period end: 28 April 2024 00:00
Orbit: 839 x 858 km, 98.9° (Epoch: 18 April)

Date Brightness Start Highest point End Pass type
(mag) Time Alt. Az. Time Alt. Az. Time Alt. Az.
18 Apr 7.3 00:40:25 14° W 00:41:16 14° W 00:44:13 10° NW visible
18 Apr 7.0 21:04:04 10° E 21:07:29 17° NE 21:10:54 10° NNE visible
18 Apr 5.1 22:45:45 49° SSE 22:47:18 80° ENE 22:52:53 10° NNW visible
19 Apr 7.1 00:27:42 18° W 00:28:36 18° W 00:32:21 10° NW visible
19 Apr 7.2 20:52:28 10° E 20:55:13 14° NE 20:57:59 10° NNE visible
19 Apr 5.3 22:33:02 41° SE 22:34:52 65° ENE 22:40:23 10° N visible
20 Apr 6.8 00:14:59 22° WSW 00:15:58 23° W 00:20:18 10° NW visible
20 Apr 7.3 20:41:09 10° ENE 20:42:58 12° NE 20:44:48 10° NNE visible
20 Apr 5.5 22:20:20 34° SE 22:22:27 53° ENE 22:27:50 10° N visible
21 Apr 6.5 00:02:16 26° WSW 00:03:22 28° W 00:08:07 10° NW visible
21 Apr 5.8 22:07:37 28° ESE 22:10:03 43° ENE 22:15:16 10° N visible
21 Apr 6.3 23:49:34 31° WSW 23:50:47 35° W 23:55:51 10° NNW visible
22 Apr 6.1 21:54:54 22° ESE 21:57:40 35° ENE 22:02:40 10° N visible
22 Apr 6.0 23:36:51 37° SW 23:38:14 43° W 23:43:31 10° NNW visible
23 Apr 6.4 21:42:11 17° ESE 21:45:19 29° ENE 21:50:02 10° N visible
23 Apr 5.7 23:24:08 41° SSW 23:25:41 54° W 23:31:09 10° NNW visible
24 Apr 6.6 21:29:28 14° ESE 21:32:59 24° ENE 21:37:21 10° N visible
24 Apr 5.4 23:11:25 43° S 23:13:11 67° WSW 23:18:43 10° NNW visible
25 Apr 7.6 00:53:23 10° W 00:54:53 11° W 00:56:23 10° WNW visible
25 Apr 6.8 21:16:45 10° E 21:20:40 20° NE 21:24:37 10° N visible
25 Apr 5.2 22:58:42 42° S 23:00:41 83° WSW 23:06:17 10° NNW visible
26 Apr 7.3 00:40:39 13° WSW 00:42:11 14° W 00:45:05 10° NW visible
26 Apr 7.0 21:04:56 10° E 21:08:23 17° NE 21:11:49 10° NNE visible
26 Apr 5.2 22:45:59 38° SSE 22:48:13 81° ENE 22:53:47 10° NNW visible
27 Apr 7.1 00:27:56 16° WSW 00:29:31 18° W 00:33:14 10° NW visible
27 Apr 7.2 20:53:19 10° E 20:56:06 14° NE 20:58:53 10° NNE visible
27 Apr 5.3 22:33:16 33° SE 22:35:46 66° ENE 22:41:17 10° N visible
